This is the latest recevied weather packets stored in our database for station/object VE1UHF-4. If no packets are shown the sender has not sent any weather packets the latest 10 day(s).
| Time | Temp. | Humidity | Pressure | Rain* | Wind** | Luminosity | Snow |
|---|---|---|---|---|---|---|---|
| 1777952902 | 11.11° C | 78% | 1000.4 hPa | 0 mm | - | - | - |
| 1777952001 | 11.11° C | 78% | 1000.1 hPa | 0 mm | - | - | - |
| 1777951101 | 11.11° C | 78% | 1000 hPa | 0 mm | - | - | - |
| 1777950200 | 11.67° C | 78% | 999.9 hPa | 0 mm | - | - | - |
| 1777949300 | 11.67° C | 77% | 999.6 hPa | 0 mm | - | - | - |
| 1777948399 | 12.22° C | 77% | 999.6 hPa | 0 mm | - | - | - |
| 1777947499 | 12.22° C | 77% | 999.3 hPa | 0 mm | - | - | - |
| 1777946598 | 12.78° C | 77% | 999.1 hPa | 0 mm | - | - | - |
| 1777945697 | 12.78° C | 77% | 998.8 hPa | 0 mm | - | - | - |
| 1777944797 | 13.33° C | 77% | 998.7 hPa | 0 mm | - | - | - |
| 1777943900 | 13.33° C | 77% | 998.4 hPa | 0 mm | - | - | - |
| 1777942996 | 13.89° C | 76% | 998.2 hPa | 0 mm | - | - | - |
| 1777941195 | 14.44° C | 77% | 997.8 hPa | 0 mm | - | - | - |
| 1777940294 | 15° C | 76% | 997.6 hPa | 0 mm | - | - | - |
| 1777939397 | 15° C | 76% | 997.2 hPa | 0 mm | - | - | - |
| 1777938494 | 15° C | 77% | 996.9 hPa | 0 mm | - | - | - |
| 1777937593 | 15.56° C | 76% | 996.6 hPa | 0 mm | - | - | - |
| 1777936692 | 15.56° C | 76% | 996.5 hPa | 0 mm | - | - | - |
| 1777935792 | 16.11° C | 76% | 996.4 hPa | 0 mm | - | - | - |
| 1777933990 | 16.67° C | 76% | 996 hPa | 0 mm | - | - | - |
| 1777933090 | 17.22° C | 76% | 995.9 hPa | 0 mm | - | - | - |
| 1777932189 | 17.22° C | 76% | 995.7 hPa | 0 mm | - | - | - |
| 1777931289 | 17.78° C | 76% | 995.5 hPa | 0 mm | - | - | - |
| 1777930388 | 17.78° C | 77% | 995.2 hPa | 0 mm | - | - | - |
| 1777929488 | 18.33° C | 77% | 995.5 hPa | 0 mm | - | - | - |
* Rain since midnight (hover to see other rain measurements)
** Current wind speed in m/s (hover to see current wind gust speed)